Voltar ao catálogo

STARLINK-5888

AtivoComunicaçõesSSO
NORAD 56348·PAYLOAD·🇺🇸 United States

Lançado Apr 27, 2023 de Vandenberg Space Force Base

Loading…

Próximas Passagens (próximas 24 horas)

TLE

AtualizadoSource: CelesTrak SupGP

Época: Sep 14, 2026, 20:55 UTC

1 56348C 23058AH  26257.87201389  .00774640  00000+0  40422-1 0  2571
2 56348  97.2857 251.9529 0001643  83.6031 101.0041 15.15630978    17

Acompanhe STARLINK-5888 em tempo real com AllMySat

Download on the App Store